Powrót do katalogu

INTELSAT 4-F2

AktywnyŁącznośćGEO
NORAD 4881·PAYLOAD· XX

Wystrzelony Jan 26, 1971 z Cape Canaveral Space Force Station

Loading…

Następne Przeloty

TLE

Source: Space-Track
1 04881U 71006A   26218.90221633 -.00000227  00000-0  00000-0 0  9992
2 04881   4.2164 275.7206 0011681 102.5081  67.6926  0.98840684122001

Śledź INTELSAT 4-F2 w czasie rzeczywistym z AllMySat

Download on the App Store